Wind_Speed
40 41 39 36 38 39 40 40 38 37 40 42 42 40 36 38 38 36 35 35 35 35 36 36 35 34 33 33 33 32 32 31 31 31 31 31 31 31 30 30 31 32 32 33
41 39 35 37 39 40 41 41 39 39 41 44 43 41 38 38 39 39 37 37 37 37 38 37 36 36 35 34 34 33 32 32 32 32 32 31 31 31 31 32 32 33 34 35
38 35 36 38 39 40 40 40 40 41 43 45 46 43 38 37 38 39 39 38 38 38 38 38 37 36 36 35 34 34 34 33 33 32 32 32 32 32 32 33 34 35 35 36
38 37 37 38 38 38 38 38 39 41 43 44 46 47 37 36 37 38 39 39 38 38 38 38 38 37 36 35 35 35 34 34 34 33 33 33 33 33 34 34 35 36 37 37
37 36 36 37 36 37 37 38 40 41 42 43 42 46 39 34 34 35 37 38 38 38 38 38 38 37 36 36 35 35 35 35 35 34 34 34 34 35 35 36 36 37 38 39
38 37 37 37 36 38 38 39 40 41 42 43 39 43 42 33 33 33 35 37 37 37 36 36 37 36 36 36 35 35 36 36 36 36 35 35 36 36 37 37 38 39 40 42
37 36 36 36 36 36 37 37 40 42 43 42 40 41 40 35 33 32 33 35 35 35 35 35 35 35 35 35 35 36 36 36 36 36 37 37 37 38 38 39 40 41 42 44
35 35 34 34 34 34 35 37 39 41 42 41 41 40 35 33 31 31 32 33 34 35 35 35 34 34 34 35 35 36 36 37 37 37 38 38 38 39 40 41 42 43 44 46
34 33 32 33 33 35 36 37 37 40 42 42 41 38 33 30 30 30 31 32 33 34 34 34 33 33 34 35 35 36 36 37 37 38 38 39 40 41 42 43 44 45 46 47
35 35 34 34 36 37 37 37 37 40 41 41 39 34 31 29 29 30 30 32 32 33 33 32 32 32 33 34 35 35 36 37 37 38 39 40 41 42 43 44 45 46 48 49
36 37 36 36 36 35 36 37 38 39 41 41 39 34 30 28 27 27 28 29 30 31 31 32 32 32 32 33 34 35 36 36 37 39 40 41 42 44 45 46 47 48 49 50
36 37 37 36 35 36 37 38 38 38 38 38 39 35 29 28 27 27 27 28 29 31 31 32 32 32 32 33 34 35 36 37 38 40 41 42 44 45 46 47 48 49 51 52
36 39 38 37 35 34 35 34 35 36 38 39 39 33 27 26 26 27 28 29 30 31 32 32 32 32 33 33 34 36 37 38 40 41 42 44 45 46 47 48 49 51 52 52
38 39 37 34 30 30 32 32 33 36 38 38 35 30 26 26 27 29 30 31 32 32 33 33 33 33 34 35 36 37 38 40 41 42 43 44 46 47 48 49 50 51 52 53
39 38 36 34 32 32 32 33 33 35 35 35 31 30 25 26 30 31 32 32 33 33 34 34 35 35 36 36 37 38 39 40 41 42 44 45 46 48 49 50 51 52 52 53
39 38 36 34 33 33 34 33 33 33 32 31 30 27 24 27 30 30 30 31 32 33 34 35 36 36 36 37 38 39 40 41 42 43 44 46 47 49 50 50 51 52 52 52
39 37 36 34 33 35 35 29 29 30 29 29 29 25 26 28 30 30 31 32 32 33 34 35 36 37 37 37 38 39 40 42 43 44 45 47 48 49 50 50 51 51 52 52
40 38 37 35 36 38 30 27 27 28 29 29 29 27 27 28 29 30 30 31 32 33 34 35 35 36 37 37 38 40 41 42 43 44 46 47 49 49 49 50 50 51 53 54
39 38 38 37 38 36 31 26 25 28 28 27 28 27 27 29 30 29 30 32 32 33 34 34 35 36 37 38 39 40 41 43 44 46 47 47 48 48 49 50 51 53 54 54
40 39 38 38 38 36 28 26 26 29 27 24 27 28 29 29 30 28 30 31 32 33 34 35 36 37 38 38 40 41 42 43 45 46 46 47 47 48 49 51 52 53 55 56
39 38 37 36 36 33 28 26 27 29 25 25 28 28 29 29 29 29 30 31 32 34 35 36 37 38 39 40 41 42 43 44 45 46 46 47 48 49 50 52 53 55 56 57
39 38 36 34 36 31 27 28 28 28 29 29 29 29 29 30 30 30 31 32 32 34 35 36 37 38 40 41 42 42 43 44 45 46 46 47 49 50 51 53 55 56 58 59
40 38 36 36 34 31 31 30 30 30 30 30 30 30 30 31 31 32 32 33 34 35 36 37 37 39 40 41 42 43 43 44 45 46 47 48 50 51 53 55 56 58 60 61
39 37 37 36 35 34 32 32 32 32 32 32 32 32 31 31 32 33 33 34 35 35 36 37 38 39 40 41 41 42 43 44 45 47 48 49 51 53 55 56 58 60 62 64
38 37 37 37 35 34 34 33 34 34 34 33 33 33 33 33 33 34 34 34 35 36 37 38 39 40 40 40 41 42 44 45 47 48 49 51 53 54 56 58 60 62 64 68
38 37 36 36 34 35 34 35 35 34 34 34 34 34 34 34 34 34 34 35 36 37 38 38 39 40 41 41 42 44 45 46 48 49 51 53 55 57 59 60 62 65 68 71
Wind_Direction
242 245 246 248 248 248 248 249 250 251 253 254 254 255 255 259 263 264 265 266 268 270 271 271 271 272 273 274 275 275 274 274 274 275 275 276 277 278 278 280 282 284 286 287
243 245 247 246 247 248 249 250 251 251 254 256 256 256 257 258 262 265 266 267 268 269 271 271 270 271 273 274 273 273 273 273 273 273 274 275 276 277 278 280 281 283 285 286
244 244 244 245 246 249 251 253 254 254 254 257 259 257 258 260 262 264 265 266 268 268 269 269 269 270 271 272 272 272 272 272 273 272 272 273 274 276 278 280 281 283 285 287
241 240 241 244 247 250 252 254 256 255 255 256 260 262 257 260 262 264 265 265 266 266 267 267 267 269 269 270 270 270 271 271 271 271 271 272 274 276 278 280 282 284 286 288
241 242 243 245 247 250 252 253 255 257 258 258 260 265 262 260 261 262 264 265 265 265 265 265 266 267 268 268 268 269 269 270 270 270 271 273 275 277 279 281 283 285 287 289
239 240 242 244 245 247 250 252 255 258 259 261 262 266 267 265 262 261 262 264 265 265 264 264 265 265 266 266 266 267 268 268 269 270 272 273 276 278 280 282 284 286 289 290
241 242 244 245 245 248 251 254 257 259 260 264 265 265 269 270 266 263 262 262 263 263 263 264 264 264 264 264 265 266 267 268 269 270 272 274 276 279 281 283 285 287 289 291
241 242 244 246 248 251 252 254 257 262 263 264 265 266 268 270 270 267 263 261 260 260 261 262 262 262 263 263 264 265 267 268 269 271 273 275 277 280 282 284 286 288 290 292
242 243 243 244 245 246 249 252 257 261 264 265 266 268 268 270 269 265 262 260 259 259 260 261 261 261 261 262 263 265 267 269 270 272 274 276 279 281 284 286 288 289 291 293
239 242 240 241 243 245 249 252 254 258 264 267 269 269 270 269 268 265 262 260 260 259 259 258 258 259 260 262 263 265 267 269 271 273 275 278 280 283 285 287 289 290 292 293
237 240 241 240 243 247 249 252 255 259 262 267 270 270 270 271 269 266 264 261 258 257 258 258 258 259 261 262 264 266 268 270 272 274 277 279 282 284 286 288 290 291 293 294
236 239 242 242 243 245 248 251 254 258 263 266 268 269 270 270 268 266 262 259 257 256 256 257 258 261 262 264 265 267 269 271 274 276 279 281 283 285 287 289 291 292 293 295
233 237 240 241 243 247 252 256 258 260 261 263 266 271 272 268 265 263 261 257 257 257 257 258 260 263 264 266 268 269 271 273 276 278 281 283 285 287 289 291 292 293 294 295
233 237 241 245 250 251 252 253 254 256 259 263 266 269 267 265 263 260 259 258 258 258 259 260 263 264 266 268 270 272 274 276 278 280 282 284 286 288 290 292 293 294 295 296
235 239 241 244 246 247 250 251 253 256 261 264 267 266 265 262 261 261 261 260 258 258 259 261 264 266 268 270 273 275 277 279 280 282 284 286 288 290 292 293 294 295 295 296
235 239 241 244 246 248 249 250 253 258 263 266 267 266 263 260 261 262 263 263 262 262 262 263 265 267 270 272 274 277 279 280 282 284 286 288 290 292 293 294 295 295 296 297
236 239 241 243 244 247 248 252 256 260 262 265 265 264 261 262 264 265 266 266 267 266 267 268 269 271 272 275 277 279 281 283 284 286 288 290 292 293 294 294 295 296 297 298
233 235 238 240 242 246 251 252 256 259 261 263 265 264 264 265 264 265 267 268 269 270 270 271 273 275 276 278 280 282 284 285 287 289 290 292 293 294 294 295 296 297 298 299
231 234 238 240 243 248 250 255 258 260 260 261 264 265 265 265 266 267 269 270 271 273 275 275 276 277 279 281 283 284 286 287 289 290 292 293 294 294 295 296 297 298 299 299
230 234 238 241 245 249 252 255 257 259 261 263 263 263 264 267 269 270 271 272 273 274 276 277 278 279 281 283 284 286 287 289 290 292 293 294 294 295 296 297 298 298 299 300
233 235 239 244 247 250 254 256 257 259 263 259 259 262 266 269 272 273 274 275 276 276 277 279 280 281 283 284 286 287 289 290 292 293 294 294 295 296 297 297 298 299 300 301
233 236 239 243 246 250 257 259 258 259 258 260 263 265 268 271 275 276 277 278 278 278 279 280 281 283 284 286 287 289 290 292 293 294 294 295 296 297 298 299 300 300 301 302
232 236 240 244 249 252 253 257 259 259 261 263 265 267 270 273 275 277 278 279 279 280 281 282 283 284 286 287 289 290 292 293 294 295 295 296 297 298 299 300 301 301 302 302
233 235 240 244 247 250 252 255 258 261 262 264 267 269 271 274 276 278 279 280 281 282 282 284 285 287 288 289 290 292 293 294 295 296 296 297 298 299 300 301 302 302 303 303
232 235 240 244 246 249 252 255 258 260 263 266 268 271 273 275 277 279 280 281 282 283 284 286 287 288 289 290 292 293 294 295 296 297 297 298 299 300 300 301 302 303 304 304
232 235 240 244 247 249 251 255 258 261 264 267 270 272 275 278 279 280 281 282 283 284 286 287 288 290 291 292 293 294 296 297 297 298 298 299 300 301 301 302 303 304 305 305
Height
5763 5768 5772 5777 5778 5780 5781 5783 5787 5790 5789 5789 5792 5796 5800 5799 5800 5802 5803 5804 5805 5805 5804 5804 5805 5805 5804 5804 5803 5802 5801 5800 5799 5798 5796 5795 5794 5793 5792 5790 5789 5788 5786 5784
5756 5761 5767 5767 5769 5771 5773 5776 5779 5782 5781 5781 5783 5787 5791 5793 5793 5794 5795 5796 5796 5796 5796 5796 5796 5797 5797 5796 5796 5795 5794 5793 5792 5791 5790 5789 5788 5786 5785 5784 5783 5781 5779 5777
5749 5756 5757 5758 5760 5763 5765 5768 5771 5772 5773 5772 5773 5778 5784 5786 5785 5786 5787 5787 5788 5788 5788 5788 5788 5788 5789 5788 5788 5787 5787 5786 5785 5784 5783 5782 5781 5780 5779 5777 5776 5774 5772 5770
5740 5745 5748 5750 5753 5756 5758 5761 5761 5762 5763 5765 5766 5766 5777 5778 5778 5778 5778 5778 5779 5779 5780 5780 5780 5780 5781 5781 5780 5780 5779 5779 5778 5777 5776 5775 5774 5773 5771 5770 5768 5767 5765 5762
5733 5738 5740 5743 5747 5748 5751 5752 5753 5754 5754 5757 5759 5757 5766 5770 5770 5770 5769 5769 5770 5771 5771 5771 5772 5772 5773 5773 5773 5772 5772 5771 5770 5769 5768 5768 5767 5765 5764 5762 5760 5759 5756 5754
5725 5729 5732 5736 5739 5741 5742 5744 5745 5745 5746 5749 5753 5751 5754 5761 5762 5762 5761 5761 5761 5762 5762 5763 5763 5764 5765 5765 5765 5764 5764 5763 5763 5762 5761 5760 5759 5757 5756 5754 5752 5750 5748 5745
5718 5722 5725 5729 5732 5734 5736 5738 5738 5737 5738 5741 5744 5743 5747 5751 5752 5753 5753 5752 5753 5753 5754 5755 5755 5756 5756 5757 5757 5756 5756 5755 5755 5754 5753 5752 5751 5749 5748 5746 5744 5741 5739 5736
5710 5715 5719 5722 5725 5728 5729 5730 5731 5731 5731 5733 5734 5735 5742 5742 5743 5743 5743 5744 5744 5745 5745 5746 5747 5748 5748 5749 5749 5748 5748 5747 5747 5746 5745 5744 5742 5741 5739 5737 5735 5732 5729 5726
5704 5708 5713 5715 5717 5719 5720 5722 5724 5723 5722 5723 5725 5729 5733 5735 5734 5734 5735 5735 5735 5736 5737 5738 5739 5740 5740 5740 5741 5740 5740 5739 5739 5738 5737 5735 5734 5732 5730 5728 5726 5723 5719 5716
5697 5700 5704 5706 5708 5710 5713 5715 5715 5715 5714 5714 5718 5721 5725 5726 5726 5726 5726 5727 5728 5729 5729 5730 5730 5731 5732 5732 5732 5732 5731 5731 5730 5729 5728 5727 5725 5723 5721 5718 5715 5712 5709 5705
5688 5692 5695 5698 5701 5704 5706 5707 5708 5708 5708 5709 5709 5716 5717 5718 5718 5718 5719 5719 5720 5721 5721 5722 5723 5723 5724 5724 5724 5724 5723 5723 5722 5720 5719 5718 5716 5713 5711 5708 5705 5702 5698 5694
5680 5683 5686 5690 5694 5695 5697 5699 5700 5702 5702 5702 5702 5708 5710 5710 5710 5710 5711 5711 5712 5713 5714 5714 5715 5716 5716 5716 5716 5715 5715 5714 5713 5712 5710 5708 5706 5703 5701 5697 5694 5690 5686 5682
5672 5674 5677 5681 5686 5689 5690 5692 5693 5694 5694 5693 5694 5701 5703 5703 5702 5703 5703 5704 5704 5705 5706 5707 5707 5707 5708 5707 5707 5707 5706 5705 5703 5702 5700 5698 5696 5693 5689 5686 5683 5679 5674 5670
5663 5666 5671 5676 5680 5682 5683 5684 5685 5685 5685 5686 5689 5693 5695 5694 5694 5695 5695 5696 5697 5698 5699 5699 5699 5699 5699 5699 5698 5697 5696 5695 5694 5692 5690 5688 5685 5682 5678 5675 5671 5666 5662 5657
5655 5659 5663 5668 5671 5673 5674 5676 5677 5677 5679 5680 5683 5684 5687 5686 5685 5686 5687 5688 5689 5690 5691 5691 5691 5691 5691 5690 5689 5688 5687 5686 5684 5682 5679 5677 5673 5670 5666 5663 5658 5654 5649 5645
5648 5652 5656 5660 5663 5664 5665 5667 5669 5671 5672 5673 5675 5677 5679 5677 5677 5678 5679 5680 5681 5682 5682 5682 5682 5682 5682 5681 5680 5679 5677 5676 5673 5671 5668 5665 5662 5658 5654 5650 5646 5641 5637 5632
5640 5645 5649 5653 5655 5655 5656 5662 5664 5665 5666 5667 5667 5671 5670 5670 5670 5671 5672 5672 5673 5673 5673 5673 5673 5673 5673 5672 5671 5669 5667 5665 5663 5660 5657 5654 5650 5646 5642 5638 5633 5629 5624 5619
5632 5636 5640 5643 5646 5646 5655 5657 5657 5658 5659 5660 5661 5662 5663 5663 5663 5663 5664 5664 5665 5665 5665 5665 5664 5664 5663 5662 5661 5659 5657 5654 5652 5649 5646 5642 5638 5634 5630 5625 5621 5616 5611 5606
5624 5628 5632 5635 5637 5640 5646 5650 5651 5651 5652 5654 5654 5654 5655 5654 5654 5656 5656 5656 5656 5656 5656 5656 5655 5654 5653 5652 5650 5648 5646 5643 5641 5637 5634 5630 5626 5622 5617 5613 5608 5603 5598 5593
5616 5620 5625 5627 5630 5633 5642 5644 5644 5644 5645 5648 5646 5646 5646 5646 5647 5649 5648 5647 5647 5647 5647 5646 5646 5645 5643 5642 5640 5638 5635 5632 5629 5626 5622 5618 5614 5609 5605 5600 5595 5590 5584 5579
5609 5613 5617 5621 5623 5627 5634 5636 5637 5638 5641 5640 5638 5639 5639 5639 5640 5641 5640 5640 5639 5638 5638 5637 5636 5635 5633 5631 5629 5627 5624 5621 5617 5614 5610 5605 5601 5597 5592 5587 5582 5576 5571 5565
5602 5606 5610 5613 5615 5623 5627 5627 5629 5630 5630 5631 5631 5632 5632 5632 5632 5632 5631 5631 5630 5630 5629 5627 5626 5625 5623 5621 5618 5616 5613 5609 5606 5602 5597 5593 5588 5584 5579 5573 5568 5562 5556 5550
5594 5600 5604 5607 5612 5616 5617 5619 5620 5621 5622 5623 5623 5624 5624 5624 5624 5624 5623 5622 5621 5620 5619 5618 5616 5614 5612 5610 5607 5604 5601 5598 5594 5590 5585 5580 5576 5570 5565 5559 5553 5547 5540 5534
5587 5592 5595 5599 5603 5606 5608 5610 5611 5613 5614 5614 5615 5616 5616 5616 5615 5615 5614 5613 5612 5611 5609 5608 5606 5604 5602 5599 5596 5593 5590 5586 5582 5577 5573 5568 5562 5557 5551 5545 5538 5532 5525 5517
5580 5584 5587 5590 5595 5597 5600 5602 5603 5604 5605 5606 5607 5607 5607 5607 5607 5606 5605 5604 5603 5601 5600 5598 5596 5593 5591 5588 5585 5582 5578 5574 5570 5565 5560 5554 5549 5543 5537 5531 5524 5516 5509 5499
5572 5577 5580 5584 5588 5590 5592 5593 5594 5596 5597 5597 5598 5598 5598 5598 5597 5597 5596 5594 5593 5591 5589 5587 5585 5582 5580 5577 5573 5570 5566 5562 5557 5552 5546 5541 5535 5529 5522 5516 5510 5501 5492 5484